Change the Weather History Date:

Tuesday, October 15, 2013

  Actual Average Record
Temperature  
Mean Temperature 72 °F -  
Max Temperature 80 °F 66 °F - ()
Min Temperature 62 °F 46 °F - ()
Cooling Degree Days 7    
Growing Degree Days 22 (Base 50)    
Moisture  
Dew Point 57 °F    
Average Humidity 67    
Maximum Humidity 83    
Minimum Humidity 32    
Precipitation  
Precipitation 0.00 in 0.07 in - ()
Sea Level Pressure  
Sea Level Pressure 30.06 in    
Wind  
Wind Speed 1 mph ()    
Max Wind Speed 8 mph    
Max Gust Speed -    
Visibility 4.6 miles    
Events      
T = Trace of Precipitation, MM = Missing Value Source: Averaged Metar Reports

Daily Weather History Graph

Daily Weather History Graph

Search for Another Location

Airport or City:

Trip Planner

Search our weather history database for the weather conditions in past years. The results will help you decide how hot, cold, wet, or windy it might be!

Date:

Astronomy

Oct. 15, 2013 Rise Set
Actual Time 7:40 AM EEST 6:51 PM EEST
Civil Twilight 7:13 AM EEST 7:18 PM EEST
Nautical Twilight 6:41 AM EEST 7:49 PM EEST
Astronomical Twilight 6:10 AM EEST 8:20 PM EEST
Moon 4:44 PM EEST (10/15) 3:43 AM EEST (10/15)
Length of Visible Light 12h 05m
Length of Day
11h 10m
Waxing Gibbous, 85% of the Moon is Illuminated
Oct 15
Waxing Gibbous
Oct 19
Full
Oct 27
Last Quarter
Nov 3
New
Nov 10
First Quarter

Hourly Weather History & Observations

Time (EEST) Temp. Heat Index Dew Point Humidity Pressure Visibility Wind Dir Wind Speed Gust Speed Precip Events Conditions
12:50 AM 66.2 °F - 59.0 °F 78% 30.15 in 5.0 mi Calm Calm - N/A   Mostly Cloudy
1:50 AM 64.4 °F - 57.2 °F 77% 30.15 in 5.0 mi Calm Calm - N/A   Mostly Cloudy
2:50 AM 66.2 °F - 59.0 °F 78% 30.15 in 5.0 mi Calm Calm - N/A   Mostly Cloudy
3:00 AM 66 °F - 58 °F 69% 30.15 in 5 mi Calm Calm - -   Mist
3:50 AM 66.2 °F - 57.2 °F 73% 30.12 in 5.0 mi Calm Calm - N/A   Mostly Cloudy
4:50 AM 64.4 °F - 57.2 °F 77% 30.09 in 5.0 mi East 4.6 mph - N/A   Mostly Cloudy
5:50 AM 64.4 °F - 59.0 °F 83% 30.09 in 5.0 mi Calm Calm - N/A   Mostly Cloudy
6:50 AM 64.4 °F - 59.0 °F 83% 30.09 in 5.0 mi Calm Calm - N/A   Mostly Cloudy
7:50 AM 64.4 °F - 57.2 °F 77% 30.09 in 3.1 mi Calm Calm - N/A   Mostly Cloudy
8:50 AM 64.4 °F - 57.2 °F 77% 30.09 in 3.1 mi Calm Calm - N/A   Mostly Cloudy
9:00 AM 65 °F - 58 °F 71% 30.12 in 3 mi Calm Calm - -   Mist
9:50 AM 66.2 °F - 59.0 °F 78% 30.09 in 3.1 mi Calm Calm - N/A   Mostly Cloudy
10:50 AM 69.8 °F - 59.0 °F 68% 30.09 in 3.1 mi Calm Calm - N/A   Mostly Cloudy
11:50 AM 71.6 °F - 59.0 °F 64% 30.09 in 3.7 mi Calm Calm - N/A   Scattered Clouds
12:50 PM 75.2 °F - 57.2 °F 53% 30.06 in 5.0 mi NNW 4.6 mph - N/A   Scattered Clouds
1:50 PM 77.0 °F - 57.2 °F 50% 30.04 in 5.0 mi ESE 4.6 mph - N/A   Scattered Clouds
2:50 PM 80.6 °F 80.5 °F 55.4 °F 42% 30.01 in 5.0 mi Calm Calm - N/A   Scattered Clouds
3:00 PM 81 °F - 56 °F 32% 30.02 in 5 mi Calm Calm - -   Mist
3:50 PM 78.8 °F - 55.4 °F 44% 29.98 in 5.0 mi Calm Calm - N/A   Scattered Clouds
4:50 PM 80.6 °F 80.5 °F 55.4 °F 42% 29.95 in 5.0 mi ENE 5.8 mph - N/A   Mostly Cloudy
7:50 PM 68.0 °F - 57.2 °F 68% 29.98 in 5.0 mi ENE 8.1 mph - N/A   Mostly Cloudy
8:50 PM 66.2 °F - 57.2 °F 73% 29.98 in 5.0 mi East 5.8 mph - N/A   Mostly Cloudy
9:00 PM 67 °F - 56 °F 61% 29.98 in 5 mi East 5.8 mph - -   Mist
9:50 PM 66.2 °F - 55.4 °F 68% 29.98 in 5.0 mi East 5.8 mph - N/A   Mostly Cloudy
10:50 PM 64.4 °F - 55.4 °F 73% 29.98 in 5.0 mi Calm Calm - N/A   Mostly Cloudy
11:50 PM 62.6 °F - 57.2 °F 82% 29.98 in 5.0 mi Calm Calm - N/A   Mostly Cloudy